THOR 6

Last updated on Sat Aug 15 2026 00:02:58 GMT+0000 (Coordinated Universal Time)

1 36033U 09058B 26226.56779608 -.00000025 00000+0 00000+0 0 9999 2 36033 0.0111 167.6868 0001701 337.4991 21.3482 1.00271564 61594
UTC large
Height (km)
Speed (km/s)
/
Latitude / Longitude
Inclination (degrees)
Orbital Period (minutes)
Azimuth
Elevation
Range (km)
Doppler Factor

Next 0 passes for location: London (51.5072 / 0.1276)

No passes found over London.
THOR 6